Home > Time Zones > World Clock > Weather > Japan > Tokyo > Past weeks

Flag for Japan Weather past 2 weeks in Tokyo, Japan

Now
79 °F

Warm.


Feels Like: 84 °F
Forecast: 81 / 94 °F
Wind: 3 mph from Southwest

Location: Tokyo

Current Time: Aug 5, 2015 at 6:00:16 AM

Latest Report: Aug 5, 2015 at 5:00 AM


Visibility: N/A

Pressure: 29.83 "Hg

Humidity: 89%

Dew point: 76 °F

Location of TokyoLocation

Historic Weather in Tokyo — Graph

°F

Tokyo temperature yesterday

Maximum temperature yesterday: 93 °F (at 12:00 PM)
Minimum temperature yesterday: 80 °F (at 2:00 AM)
Average temperature yesterday: 86 °F

Past Weeks' High & Low Weather Summary

 TemperatureHumidityPressure
High95 °F (Jul 26, 2:00 PM)99% (Jul 25, 3:00 AM)29.93 "Hg (Jul 25, 3:00 AM)
Low77 °F (Jul 23, 6:00 AM)44% (Jul 21, 2:00 PM)29.67 "Hg (Jul 28, 3:00 PM)
Average85 °F73%29.81 "Hg
* Reported Jul 21 4:00 AM — Aug 5 4:00 AM, Tokyo, Weather by CustomWeather, © 2015

Note: Actual official high and low records may vary slightly from our data, if they occured in-between our weather recording intervals... More about our weather records

Advertising

Tokyo weather history for previous 24 hours

 ConditionsComfort  
Time TempWeatherWind HumidityBarometerVisibility
4:00 AM
Wed, Aug 5
79 °FWarm.2 mph85%29.83 "HgN/A
3:00 AM82 °FClear.7 mph78%29.83 "Hg12 mi
2:00 AM81 °FWarm.7 mph79%29.83 "HgN/A
1:00 AM82 °FWarm.9 mph79%29.83 "HgN/A
12:00 AM82 °FWarm.7 mph77%29.84 "HgN/A
11:00 PM
Tue, Aug 4
83 °FWarm.12 mph76%29.85 "HgN/A
10:00 PM83 °FWarm.9 mph72%29.85 "HgN/A
9:00 PM84 °FPassing clouds.12 mph70%29.84 "Hg9 mi
8:00 PM84 °FWarm.12 mph68%29.84 "HgN/A
7:00 PM85 °FWarm.10 mph70%29.82 "HgN/A
6:00 PM87 °FPassing clouds.9 mph60%29.80 "Hg9 mi
5:00 PM90 °FHot.12 mph57%29.80 "HgN/A
4:00 PM91 °FHot.9 mph55%29.79 "HgN/A
3:00 PM93 °FPassing clouds.10 mph54%29.79 "Hg6 mi
2:00 PM92 °FHot.13 mph56%29.79 "HgN/A
1:00 PM93 °FHot.12 mph56%29.80 "HgN/A
12:00 PM93 °FHaze.9 mph58%29.81 "Hg5 mi
11:00 AM91 °FHot.10 mph63%29.82 "HgN/A
10:00 AM91 °FHot.3 mph60%29.84 "HgN/A
9:00 AM88 °FPartly sunny.2 mph67%29.84 "Hg5 mi
8:00 AM85 °FWarm.3 mph73%29.84 "HgN/A
7:00 AM84 °FWarm.2 mph76%29.85 "HgN/A
6:00 AM82 °FPassing clouds.3 mph78%29.84 "Hg6 mi
Weather by CustomWeather, © 2015

See weather overviewHow to use our weather pages